This is the latest recevied weather packets stored in our database for station/object WC4PEM-9. If no packets are shown the sender has not sent any weather packets the latest 10 day(s).
| Time | Temp. | Humidity | Pressure | Rain* | Wind** | Luminosity | Snow |
|---|---|---|---|---|---|---|---|
| 1777399402 | 30° C | 56% | 1018.5 hPa | 0 mm | - | - | - |
| 1777399130 | 30° C | 56% | 1018.5 hPa | 0 mm | - | - | - |
| 1777398830 | 30° C | 58% | 1018.5 hPa | 0 mm | - | - | - |
| 1777398687 | 29.44° C | 61% | 1018.5 hPa | 0 mm | - | - | - |
| 1777398530 | 29.44° C | 61% | 1018.5 hPa | 0 mm | - | - | - |
| 1777398230 | 28.89° C | 61% | 1018.3 hPa | 0 mm | - | - | - |
| 1777398132 | 28.89° C | 64% | 1018.6 hPa | 0 mm | - | - | - |
| 1777397930 | 28.89° C | 64% | 1018.6 hPa | 0 mm | - | - | - |
| 1777397630 | 28.89° C | 62% | 1018.6 hPa | 0 mm | - | - | - |
| 1777397330 | 28.89° C | 62% | 1018.9 hPa | 0 mm | - | - | - |
| 1777397030 | 28.89° C | 63% | 1018.6 hPa | 0 mm | - | - | - |
| 1777396913 | 28.89° C | 62% | 1018.7 hPa | 0 mm | - | - | - |
| 1777396730 | 28.89° C | 62% | 1018.7 hPa | 0 mm | - | - | - |
| 1777396580 | 28.89° C | 64% | 1018.5 hPa | 0 mm | - | - | - |
| 1777396430 | 28.89° C | 64% | 1018.5 hPa | 0 mm | - | - | - |
| 1777396130 | 28.89° C | 65% | 1018.5 hPa | 0 mm | - | - | - |
| 1777395830 | 28.33° C | 65% | 1018.4 hPa | 0 mm | - | - | - |
| 1777395785 | 28.33° C | 63% | 1018.7 hPa | 0 mm | - | - | - |
| 1777395716 | 28.33° C | 63% | 1018.7 hPa | 0 mm | - | - | - |
| 1777395530 | 28.33° C | 63% | 1018.7 hPa | 0 mm | - | - | - |
| 1777395413 | 28.33° C | 64% | 1018.7 hPa | 0 mm | - | - | - |
| 1777395231 | 28.33° C | 64% | 1018.7 hPa | 0 mm | - | - | - |
| 1777394931 | 27.78° C | 66% | 1018.8 hPa | 0 mm | - | - | - |
| 1777394814 | 27.78° C | 67% | 1019 hPa | 0 mm | - | - | - |
| 1777394631 | 27.78° C | 67% | 1019 hPa | 0 mm | - | - | - |
* Rain latest hour (hover to see other rain measurements)
** Current wind speed in m/s (hover to see current wind gust speed)